Time,TemperatureF,DewpointF,PressureIn,WindDirection,WindDirectionDegrees,WindSpeedMPH,WindSpeedGustMPH,Humidity,HourlyPrecipIn,Conditions,Clouds,dailyrainin,SoftwareType,DateUTC
2013-01-02 00:00:00,33.7,19.7,29.98,North,359,8.0,18.0,56,0.00,,---,0.00,VWS V14.01,2013-01-02 05:00:00,
2013-01-02 00:01:00,33.6,19.6,29.98,WNW,297,11.0,15.0,56,0.00,,---,0.00,VWS V14.01,2013-01-02 05:01:00,
2013-01-02 00:06:00,33.6,20.0,29.96,NW,305,5.0,16.0,57,0.00,,---,0.00,VWS V14.01,2013-01-02 05:06:00,
2013-01-02 00:12:00,33.5,19.9,29.98,NE,36,10.0,16.0,57,0.00,,---,0.00,VWS V14.01,2013-01-02 05:12:00,
2013-01-02 00:17:00,33.4,19.4,29.98,West,276,10.0,16.0,56,0.00,,---,0.00,VWS V14.01,2013-01-02 05:17:00,
2013-01-02 00:22:00,33.3,19.3,29.99,NNW,346,1.0,16.0,56,0.00,,---,0.00,VWS V14.01,2013-01-02 05:22:00,
2013-01-02 00:27:00,33.2,17.9,29.98,NNW,347,7.0,16.0,53,0.00,,---,0.00,VWS V14.01,2013-01-02 05:27:00,
2013-01-02 00:30:00,33.2,18.8,29.98,NW,315,7.0,16.0,55,0.00,,---,0.00,VWS V14.01,2013-01-02 05:30:00,
2013-01-02 00:32:00,33.1,18.7,29.98,WNW,296,5.0,10.0,55,0.00,,---,0.00,VWS V14.01,2013-01-02 05:32:00,
2013-01-02 00:37:00,33.1,18.7,29.98,NW,323,8.0,14.0,55,0.00,,---,0.00,VWS V14.01,2013-01-02 05:37:00,
2013-01-02 00:42:00,33.0,18.2,29.98,WNW,288,3.0,15.0,54,0.00,,---,0.00,VWS V14.01,2013-01-02 05:42:00,
2013-01-02 00:47:00,33.0,19.0,29.99,SW,221,5.0,15.0,56,0.00,,---,0.00,VWS V14.01,2013-01-02 05:47:00,
2013-01-02 00:52:00,32.9,18.5,29.98,NNW,340,7.0,15.0,55,0.00,,---,0.00,VWS V14.01,2013-01-02 05:52:00,
2013-01-02 00:57:00,32.8,18.4,29.97,NW,307,9.0,15.0,55,0.00,,---,0.00,VWS V14.01,2013-01-02 05:57:00,
2013-01-02 01:00:00,32.7,18.3,29.97,NW,315,5.0,15.0,55,0.00,,---,0.00,VWS V14.01,2013-01-02 06:00:00,
2013-01-02 01:02:00,32.7,18.3,29.97,WNW,298,9.0,13.0,55,0.00,,---,0.00,VWS V14.01,2013-01-02 06:02:00,
2013-01-02 01:07:00,32.6,18.7,29.97,NNW,345,7.0,16.0,56,0.00,,---,0.00,VWS V14.01,2013-01-02 06:07:00,
2013-01-02 01:12:00,32.5,18.1,29.97,NW,321,5.0,16.0,55,0.00,,---,0.00,VWS V14.01,2013-01-02 06:12:00,
2013-01-02 01:17:00,32.5,18.6,29.99,NNE,12,2.0,16.0,56,0.00,,---,0.00,VWS V14.01,2013-01-02 06:17:00,
2013-01-02 01:22:00,32.5,18.6,30.00,NW,304,2.0,16.0,56,0.00,,---,0.00,VWS V14.01,2013-01-02 06:22:00,
2013-01-02 01:27:00,32.4,18.0,30.00,North,10,2.0,16.0,55,0.00,,---,0.00,VWS V14.01,2013-01-02 06:27:00,
2013-01-02 01:30:00,32.4,18.0,30.00,NW,315,5.0,16.0,55,0.00,,---,0.00,VWS V14.01,2013-01-02 06:30:00,
2013-01-02 01:32:00,32.4,18.5,30.00,North,11,2.0,7.0,56,0.00,,---,0.00,VWS V14.01,2013-01-02 06:32:00,
2013-01-02 01:37:00,32.3,18.4,29.99,North,3,6.0,10.0,56,0.00,,---,0.00,VWS V14.01,2013-01-02 06:37:00,
2013-01-02 01:42:00,32.2,18.7,29.99,NE,49,1.0,10.0,57,0.00,,---,0.00,VWS V14.01,2013-01-02 06:42:00,
2013-01-02 01:47:00,32.0,18.1,30.00,NW,311,4.0,10.0,56,0.00,,---,0.00,VWS V14.01,2013-01-02 06:47:00,
2013-01-02 01:52:00,31.8,18.3,29.99,NE,40,4.0,10.0,57,0.00,,---,0.00,VWS V14.01,2013-01-02 06:52:00,
2013-01-02 01:57:00,31.7,18.2,29.98,NNE,15,7.0,11.0,57,0.00,,---,0.00,VWS V14.01,2013-01-02 06:57:00,
2013-01-02 02:00:00,31.6,18.1,29.98,NW,315,4.0,13.0,57,0.00,,---,0.00,VWS V14.01,2013-01-02 07:00:00,
2013-01-02 02:02:00,31.6,18.5,29.98,NW,316,2.0,9.0,58,0.00,,---,0.00,VWS V14.01,2013-01-02 07:02:00,
2013-01-02 02:07:00,31.5,18.4,29.99,NNE,15,5.0,11.0,58,0.00,,---,0.00,VWS V14.01,2013-01-02 07:07:00,
2013-01-02 02:12:00,31.4,17.5,30.00,NE,53,7.0,11.0,56,0.00,,---,0.00,VWS V14.01,2013-01-02 07:12:00,
2013-01-02 02:17:00,31.4,17.9,30.00,NW,322,3.0,11.0,57,0.00,,---,0.00,VWS V14.01,2013-01-02 07:17:00,
2013-01-02 02:22:00,31.3,17.9,30.00,NNW,333,8.0,13.0,57,0.00,,---,0.00,VWS V14.01,2013-01-02 07:22:00,
2013-01-02 02:27:00,31.1,18.1,29.99,North,349,8.0,13.0,58,0.00,,---,0.00,VWS V14.01,2013-01-02 07:27:00,
2013-01-02 02:30:00,31.0,17.6,30.00,NW,315,5.0,13.0,57,0.00,,---,0.00,VWS V14.01,2013-01-02 07:30:00,
2013-01-02 02:32:00,31.0,17.6,30.00,ESE,105,8.0,12.0,57,0.00,,---,0.00,VWS V14.01,2013-01-02 07:32:00,
2013-01-02 02:37:00,30.9,17.5,30.01,West,271,4.0,12.0,57,0.00,,---,0.00,VWS V14.01,2013-01-02 07:37:00,
2013-01-02 02:42:00,30.8,17.8,30.01,WNW,288,2.0,12.0,58,0.00,,---,0.00,VWS V14.01,2013-01-02 07:42:00,
2013-01-02 02:47:00,30.7,17.7,30.00,NE,38,3.0,12.0,58,0.00,,---,0.00,VWS V14.01,2013-01-02 07:47:00,
2013-01-02 02:52:00,30.6,18.0,30.01,WNW,292,1.0,12.0,59,0.00,,---,0.00,VWS V14.01,2013-01-02 07:52:00,
2013-01-02 02:57:00,30.6,18.0,30.00,WSW,253,1.0,12.0,59,0.00,,---,0.00,VWS V14.01,2013-01-02 07:57:00,
2013-01-02 03:00:00,30.6,17.2,29.99,NW,315,4.0,12.0,57,0.00,,---,0.00,VWS V14.01,2013-01-02 08:00:00,
2013-01-02 03:02:00,30.5,17.1,29.99,ENE,59,2.0,7.0,57,0.00,,---,0.00,VWS V14.01,2013-01-02 08:02:00,
2013-01-02 03:07:00,30.4,17.4,30.01,WNW,295,3.0,8.0,58,0.00,,---,0.00,VWS V14.01,2013-01-02 08:07:00,
2013-01-02 03:12:00,30.3,17.3,30.00,NNW,345,5.0,9.0,58,0.00,,---,0.00,VWS V14.01,2013-01-02 08:12:00,
2013-01-02 03:17:00,30.2,17.2,30.00,WSW,258,3.0,9.0,58,0.00,,---,0.00,VWS V14.01,2013-01-02 08:17:00,
2013-01-02 03:22:00,30.2,17.2,30.00,ENE,58,2.0,12.0,58,0.00,,---,0.00,VWS V14.01,2013-01-02 08:22:00,
2013-01-02 03:27:00,30.1,17.1,30.01,West,281,1.0,12.0,58,0.00,,---,0.00,VWS V14.01,2013-01-02 08:27:00,
2013-01-02 03:30:00,30.0,16.6,30.00,NW,315,4.0,12.0,57,0.00,,---,0.00,VWS V14.01,2013-01-02 08:30:00,
2013-01-02 03:33:00,30.0,16.6,30.00,NNW,334,3.0,6.0,57,0.00,,---,0.00,VWS V14.01,2013-01-02 08:33:00,
2013-01-02 03:38:00,29.9,16.9,30.01,WNW,290,3.0,9.0,58,0.00,,---,0.00,VWS V14.01,2013-01-02 08:38:00,
2013-01-02 03:43:00,29.9,16.5,30.02,NNW,340,4.0,13.0,57,0.00,,---,0.00,VWS V14.01,2013-01-02 08:43:00,
2013-01-02 03:48:00,29.8,16.8,30.02,NNE,27,1.0,13.0,58,0.00,,---,0.00,VWS V14.01,2013-01-02 08:48:00,
2013-01-02 03:53:00,29.8,16.8,30.01,NE,54,6.0,13.0,58,0.00,,---,0.00,VWS V14.01,2013-01-02 08:53:00,
2013-01-02 03:58:00,29.7,16.4,30.01,NNW,345,3.0,13.0,57,0.00,,---,0.00,VWS V14.01,2013-01-02 08:58:00,
2013-01-02 04:00:00,29.7,16.8,30.01,NW,315,4.0,13.0,58,0.00,,---,0.00,VWS V14.01,2013-01-02 09:00:00,
2013-01-02 04:03:00,29.6,16.2,30.00,West,280,6.0,8.0,57,0.00,,---,0.00,VWS V14.01,2013-01-02 09:03:00,
2013-01-02 04:08:00,29.5,16.2,30.01,NNW,335,6.0,9.0,57,0.00,,---,0.00,VWS V14.01,2013-01-02 09:08:00,
2013-01-02 04:13:00,29.4,16.1,30.01,North,349,4.0,9.0,57,0.00,,---,0.00,VWS V14.01,2013-01-02 09:13:00,
2013-01-02 04:18:00,29.3,16.0,30.01,NNE,30,4.0,11.0,57,0.00,,---,0.00,VWS V14.01,2013-01-02 09:18:00,
2013-01-02 04:23:00,29.2,15.9,30.01,NNW,329,2.0,11.0,57,0.00,,---,0.00,VWS V14.01,2013-01-02 09:23:00,
2013-01-02 04:28:00,29.2,15.9,30.01,North,352,3.0,11.0,57,0.00,,---,0.00,VWS V14.01,2013-01-02 09:28:00,
2013-01-02 04:30:00,29.2,15.9,30.01,NW,315,4.0,11.0,57,0.00,,---,0.00,VWS V14.01,2013-01-02 09:30:00,
2013-01-02 04:33:00,29.1,16.2,30.01,NW,307,4.0,6.0,58,0.00,,---,0.00,VWS V14.01,2013-01-02 09:33:00,
2013-01-02 04:38:00,29.1,15.8,30.01,NW,308,6.0,8.0,57,0.00,,---,0.00,VWS V14.01,2013-01-02 09:38:00,
2013-01-02 04:43:00,29.0,15.7,30.00,NW,304,3.0,8.0,57,0.00,,---,0.00,VWS V14.01,2013-01-02 09:43:00,
2013-01-02 04:48:00,29.0,16.1,30.01,WNW,300,3.0,8.0,58,0.00,,---,0.00,VWS V14.01,2013-01-02 09:48:00,
2013-01-02 04:53:00,29.0,16.1,30.02,NE,56,1.0,8.0,58,0.00,,---,0.00,VWS V14.01,2013-01-02 09:53:00,
2013-01-02 04:58:00,29.0,15.7,30.02,West,281,2.0,8.0,57,0.00,,---,0.00,VWS V14.01,2013-01-02 09:58:00,
2013-01-02 05:00:00,29.0,15.7,30.02,NW,315,3.0,8.0,57,0.00,,---,0.00,VWS V14.01,2013-01-02 10:00:00,
2013-01-02 05:03:00,29.0,15.7,30.02,WSW,256,3.0,7.0,57,0.00,,---,0.00,VWS V14.01,2013-01-02 10:03:00,
2013-01-02 05:08:00,29.0,16.1,30.01,NW,317,2.0,7.0,58,0.00,,---,0.00,VWS V14.01,2013-01-02 10:08:00,
2013-01-02 05:13:00,28.9,15.6,30.02,NW,311,2.0,8.0,57,0.00,,---,0.00,VWS V14.01,2013-01-02 10:13:00,
2013-01-02 05:18:00,28.9,15.6,30.02,NNW,341,4.0,8.0,57,0.00,,---,0.00,VWS V14.01,2013-01-02 10:18:00,
2013-01-02 05:23:00,28.8,15.9,30.02,NW,304,4.0,8.0,58,0.00,,---,0.00,VWS V14.01,2013-01-02 10:23:00,
2013-01-02 05:28:00,28.8,15.9,30.02,NW,304,2.0,9.0,58,0.00,,---,0.00,VWS V14.01,2013-01-02 10:28:00,
2013-01-02 05:30:00,28.7,15.8,30.03,WNW,292,3.0,10.0,58,0.00,,---,0.00,VWS V14.01,2013-01-02 10:30:00,
2013-01-02 05:33:00,28.7,15.4,30.03,NW,316,3.0,10.0,57,0.00,,---,0.00,VWS V14.01,2013-01-02 10:33:00,
2013-01-02 05:38:00,28.6,15.3,30.03,North,356,8.0,10.0,57,0.00,,---,0.00,VWS V14.01,2013-01-02 10:38:00,
2013-01-02 05:43:00,28.6,15.3,30.02,NW,307,8.0,13.0,57,0.00,,---,0.00,VWS V14.01,2013-01-02 10:43:00,
2013-01-02 05:48:00,28.6,15.3,30.03,NE,48,0.0,13.0,57,0.00,,---,0.00,VWS V14.01,2013-01-02 10:48:00,
2013-01-02 05:53:00,28.6,14.9,30.03,North,357,7.0,13.0,56,0.00,,---,0.00,VWS V14.01,2013-01-02 10:53:00,
2013-01-02 05:58:00,28.6,15.3,30.03,WSW,255,3.0,13.0,57,0.00,,---,0.00,VWS V14.01,2013-01-02 10:58:00,
2013-01-02 06:00:00,28.6,15.3,30.03,WNW,292,4.0,13.0,57,0.00,,---,0.00,VWS V14.01,2013-01-02 11:00:00,
2013-01-02 06:03:00,28.5,14.8,30.03,NE,49,4.0,12.0,56,0.00,,---,0.00,VWS V14.01,2013-01-02 11:03:00,
2013-01-02 06:08:00,28.5,14.8,30.03,West,273,7.0,12.0,56,0.00,,---,0.00,VWS V14.01,2013-01-02 11:08:00,
2013-01-02 06:13:00,28.5,15.2,30.04,NW,304,6.0,12.0,57,0.00,,---,0.00,VWS V14.01,2013-01-02 11:13:00,
2013-01-02 06:18:00,28.4,15.1,30.03,East,82,1.0,12.0,57,0.00,,---,0.00,VWS V14.01,2013-01-02 11:18:00,
2013-01-02 06:23:00,28.3,15.4,30.04,NW,316,0.0,12.0,58,0.00,,---,0.00,VWS V14.01,2013-01-02 11:23:00,
2013-01-02 06:28:00,28.4,15.5,30.03,NE,53,2.0,12.0,58,0.00,,---,0.00,VWS V14.01,2013-01-02 11:28:00,
2013-01-02 06:30:00,28.4,15.5,30.03,NW,315,4.0,12.0,58,0.00,,---,0.00,VWS V14.01,2013-01-02 11:30:00,
2013-01-02 06:33:00,28.4,15.5,30.03,West,262,7.0,8.0,58,0.00,,---,0.00,VWS V14.01,2013-01-02 11:33:00,
2013-01-02 06:38:00,28.3,15.0,30.04,WSW,238,1.0,11.0,57,0.00,,---,0.00,VWS V14.01,2013-01-02 11:38:00,
2013-01-02 06:43:00,28.3,15.0,30.04,NW,319,7.0,11.0,57,0.00,,---,0.00,VWS V14.01,2013-01-02 11:43:00,
2013-01-02 06:48:00,28.2,14.9,30.04,NNE,31,4.0,11.0,57,0.00,,---,0.00,VWS V14.01,2013-01-02 11:48:00,
2013-01-02 06:53:00,28.2,14.9,30.03,NNE,12,2.0,11.0,57,0.00,,---,0.00,VWS V14.01,2013-01-02 11:53:00,
2013-01-02 06:58:00,28.1,14.8,30.03,NNE,23,4.0,11.0,57,0.00,,---,0.00,VWS V14.01,2013-01-02 11:58:00,
2013-01-02 07:00:00,28.1,14.8,30.04,NW,315,4.0,11.0,57,0.00,,---,0.00,VWS V14.01,2013-01-02 12:00:00,
2013-01-02 07:03:00,28.1,14.8,30.03,North,356,1.0,7.0,57,0.00,,---,0.00,VWS V14.01,2013-01-02 12:03:00,
2013-01-02 07:08:00,28.0,14.8,30.04,WNW,288,5.0,9.0,57,0.00,,---,0.00,VWS V14.01,2013-01-02 12:08:00,
2013-01-02 07:13:00,28.0,15.5,30.05,ENE,64,0.0,9.0,59,0.00,,---,0.00,VWS V14.01,2013-01-02 12:13:00,
2013-01-02 07:18:00,27.9,15.4,30.05,WNW,302,6.0,9.0,59,0.00,,---,0.00,VWS V14.01,2013-01-02 12:18:00,
2013-01-02 07:23:00,27.8,15.4,30.05,WNW,283,2.0,9.0,59,0.00,,---,0.00,VWS V14.01,2013-01-02 12:23:00,
2013-01-02 07:28:00,27.8,15.4,30.06,SW,219,3.0,9.0,59,0.00,,---,0.00,VWS V14.01,2013-01-02 12:28:00,
2013-01-02 07:30:00,27.8,15.4,30.06,NW,315,3.0,9.0,59,0.00,,---,0.00,VWS V14.01,2013-01-02 12:30:00,
2013-01-02 07:33:00,27.7,15.3,30.05,West,278,0.0,5.0,59,0.00,,---,0.00,VWS V14.01,2013-01-02 12:33:00,
2013-01-02 07:38:00,27.7,15.6,30.05,NE,34,3.0,6.0,60,0.00,,---,0.00,VWS V14.01,2013-01-02 12:38:00,
2013-01-02 07:43:00,27.7,16.0,30.05,NW,325,3.0,6.0,61,0.00,,---,0.00,VWS V14.01,2013-01-02 12:43:00,
2013-01-02 07:48:00,27.6,16.3,30.05,NE,41,0.0,7.0,62,0.00,,---,0.00,VWS V14.01,2013-01-02 12:48:00,
2013-01-02 07:53:00,27.5,16.2,30.05,NNW,345,3.0,7.0,62,0.00,,---,0.00,VWS V14.01,2013-01-02 12:53:00,
2013-01-02 07:58:00,27.5,16.2,30.05,NW,307,1.0,7.0,62,0.00,,---,0.00,VWS V14.01,2013-01-02 12:58:00,
2013-01-02 08:00:00,27.5,16.2,30.05,NW,315,2.0,7.0,62,0.00,,---,0.00,VWS V14.01,2013-01-02 13:00:00,
2013-01-02 08:03:00,27.4,15.4,30.05,NW,320,5.0,8.0,60,0.00,,---,0.00,VWS V14.01,2013-01-02 13:03:00,
2013-01-02 08:08:00,27.4,15.0,30.06,WNW,300,7.0,10.0,59,0.00,,---,0.00,VWS V14.01,2013-01-02 13:08:00,
2013-01-02 08:13:00,27.4,15.0,30.06,WNW,290,3.0,11.0,59,0.00,,---,0.00,VWS V14.01,2013-01-02 13:13:00,
2013-01-02 08:18:00,27.5,15.4,30.07,NW,304,4.0,11.0,60,0.00,,---,0.00,VWS V14.01,2013-01-02 13:18:00,
2013-01-02 08:23:00,27.5,15.1,30.08,West,259,6.0,11.0,59,0.00,,---,0.00,VWS V14.01,2013-01-02 13:23:00,
2013-01-02 08:28:00,27.5,15.1,30.07,NNW,346,1.0,11.0,59,0.00,,---,0.00,VWS V14.01,2013-01-02 13:28:00,
2013-01-02 08:30:00,27.6,15.2,30.07,NW,315,4.0,11.0,59,0.00,,---,0.00,VWS V14.01,2013-01-02 13:30:00,
2013-01-02 08:33:00,27.5,14.7,30.07,West,274,3.0,9.0,58,0.00,,---,0.00,VWS V14.01,2013-01-02 13:33:00,
2013-01-02 08:38:00,27.5,15.1,30.08,NNW,342,5.0,9.0,59,0.00,,---,0.00,VWS V14.01,2013-01-02 13:38:00,
2013-01-02 08:43:00,27.6,15.2,30.07,NW,322,6.0,10.0,59,0.00,,---,0.00,VWS V14.01,2013-01-02 13:43:00,
2013-01-02 08:48:00,27.7,15.3,30.08,WNW,295,5.0,10.0,59,0.00,,---,0.00,VWS V14.01,2013-01-02 13:48:00,
2013-01-02 08:53:00,27.8,15.0,30.09,North,5,0.0,11.0,58,0.00,,---,0.00,VWS V14.01,2013-01-02 13:53:00,
2013-01-02 08:58:00,27.9,15.4,30.09,West,264,8.0,11.0,59,0.00,,---,0.00,VWS V14.01,2013-01-02 13:58:00,
2013-01-02 09:00:00,28.0,15.1,30.09,WNW,292,4.0,11.0,58,0.00,,---,0.00,VWS V14.01,2013-01-02 14:00:00,
2013-01-02 09:03:00,28.1,15.2,30.09,NNE,33,8.0,8.0,58,0.00,,---,0.00,VWS V14.01,2013-01-02 14:03:00,
2013-01-02 09:08:00,28.1,15.2,30.09,NNW,338,2.0,8.0,58,0.00,,---,0.00,VWS V14.01,2013-01-02 14:08:00,
2013-01-02 09:13:00,28.2,14.9,30.09,WNW,296,2.0,8.0,57,0.00,,---,0.00,VWS V14.01,2013-01-02 14:13:00,
2013-01-02 09:18:00,28.6,15.3,30.10,ENE,70,1.0,8.0,57,0.00,,---,0.00,VWS V14.01,2013-01-02 14:18:00,
2013-01-02 09:23:00,28.8,14.7,30.09,NW,304,8.0,8.0,55,0.00,,---,0.00,VWS V14.01,2013-01-02 14:23:00,
2013-01-02 09:28:00,28.8,14.7,30.09,NW,322,2.0,10.0,55,0.00,,---,0.00,VWS V14.01,2013-01-02 14:28:00,
2013-01-02 09:30:00,28.9,14.8,30.10,NW,315,4.0,11.0,55,0.00,,---,0.00,VWS V14.01,2013-01-02 14:30:00,
2013-01-02 09:33:00,28.9,14.4,30.10,North,5,4.0,10.0,54,0.00,,---,0.00,VWS V14.01,2013-01-02 14:33:00,
2013-01-02 09:38:00,29.1,15.0,30.10,NNE,13,4.0,10.0,55,0.00,,---,0.00,VWS V14.01,2013-01-02 14:38:00,
2013-01-02 09:43:00,29.3,15.1,30.10,WNW,288,4.0,10.0,55,0.00,,---,0.00,VWS V14.01,2013-01-02 14:43:00,
2013-01-02 09:48:00,29.6,15.0,30.11,West,259,1.0,10.0,54,0.00,,---,0.00,VWS V14.01,2013-01-02 14:48:00,
2013-01-02 09:53:00,29.6,15.0,30.11,WSW,240,1.0,10.0,54,0.00,,---,0.00,VWS V14.01,2013-01-02 14:53:00,
2013-01-02 09:58:00,29.8,14.8,30.11,North,356,8.0,10.0,53,0.00,,---,0.00,VWS V14.01,2013-01-02 14:58:00,
2013-01-02 10:00:00,29.6,14.1,30.11,WNW,292,3.0,10.0,52,0.00,,---,0.00,VWS V14.01,2013-01-02 15:00:00,
2013-01-02 10:03:00,29.8,14.8,30.12,North,356,3.0,7.0,53,0.00,,---,0.00,VWS V14.01,2013-01-02 15:03:00,
2013-01-02 10:08:00,30.1,15.1,30.12,West,281,2.0,7.0,53,0.00,,---,0.00,VWS V14.01,2013-01-02 15:08:00,
2013-01-02 10:13:00,30.2,14.7,30.12,West,267,5.0,7.0,52,0.00,,---,0.00,VWS V14.01,2013-01-02 15:13:00,
2013-01-02 10:18:00,30.1,14.6,30.12,NW,326,2.0,9.0,52,0.00,,---,0.00,VWS V14.01,2013-01-02 15:18:00,
2013-01-02 10:23:00,30.3,14.8,30.12,NNW,347,2.0,9.0,52,0.00,,---,0.00,VWS V14.01,2013-01-02 15:23:00,
2013-01-02 10:28:00,30.6,15.5,30.12,West,267,3.0,10.0,53,0.00,,---,0.00,VWS V14.01,2013-01-02 15:28:00,
2013-01-02 10:30:00,30.7,15.6,30.12,NW,315,3.0,10.0,53,0.00,,---,0.00,VWS V14.01,2013-01-02 15:30:00,
2013-01-02 10:33:00,30.7,15.2,30.12,NW,308,5.0,6.0,52,0.00,,---,0.00,VWS V14.01,2013-01-02 15:33:00,
2013-01-02 10:38:00,30.5,15.4,30.12,NNE,13,6.0,9.0,53,0.00,,---,0.00,VWS V14.01,2013-01-02 15:38:00,
2013-01-02 10:43:00,31.2,16.1,30.11,East,84,5.0,9.0,53,0.00,,---,0.00,VWS V14.01,2013-01-02 15:43:00,
2013-01-02 10:48:00,31.2,14.7,30.10,North,349,5.0,11.0,50,0.00,,---,0.00,VWS V14.01,2013-01-02 15:48:00,
2013-01-02 10:53:00,31.3,15.3,30.10,NW,317,4.0,11.0,51,0.00,,---,0.00,VWS V14.01,2013-01-02 15:53:00,
2013-01-02 10:58:00,31.2,15.2,30.10,WNW,289,2.0,12.0,51,0.00,,---,0.00,VWS V14.01,2013-01-02 15:58:00,
2013-01-02 11:00:00,31.4,15.4,30.10,WNW,292,4.0,12.0,51,0.00,,---,0.00,VWS V14.01,2013-01-02 16:00:00,
2013-01-02 11:03:00,31.7,15.2,30.09,West,266,7.0,11.0,50,0.00,,---,0.00,VWS V14.01,2013-01-02 16:03:00,
2013-01-02 11:08:00,31.6,14.6,30.09,NNW,341,2.0,11.0,49,0.00,,---,0.00,VWS V14.01,2013-01-02 16:08:00,
2013-01-02 11:13:00,31.6,15.1,30.09,West,269,5.0,11.0,50,0.00,,---,0.00,VWS V14.01,2013-01-02 16:13:00,
2013-01-02 11:18:00,31.8,15.3,30.09,WNW,291,4.0,11.0,50,0.00,,---,0.00,VWS V14.01,2013-01-02 16:18:00,
2013-01-02 11:23:00,32.1,15.1,30.09,WNW,283,8.0,14.0,49,0.00,,---,0.00,VWS V14.01,2013-01-02 16:23:00,
2013-01-02 11:28:00,32.2,15.2,30.08,West,271,6.0,14.0,49,0.00,,---,0.00,VWS V14.01,2013-01-02 16:28:00,
2013-01-02 11:30:00,32.3,15.3,30.09,West,270,6.0,14.0,49,0.00,,---,0.00,VWS V14.01,2013-01-02 16:30:00,
2013-01-02 11:33:00,32.6,15.6,30.08,West,261,5.0,13.0,49,0.00,,---,0.00,VWS V14.01,2013-01-02 16:33:00,
2013-01-02 11:38:00,32.5,15.0,30.08,West,276,5.0,13.0,48,0.00,,---,0.00,VWS V14.01,2013-01-02 16:38:00,
2013-01-02 11:43:00,32.5,15.0,30.07,WNW,301,7.0,13.0,48,0.00,,---,0.00,VWS V14.01,2013-01-02 16:43:00,
2013-01-02 11:48:00,32.7,15.2,30.08,West,276,11.0,13.0,48,0.00,,---,0.00,VWS V14.01,2013-01-02 16:48:00,
2013-01-02 11:53:00,32.5,15.0,30.07,WSW,254,4.0,14.0,48,0.00,,---,0.00,VWS V14.01,2013-01-02 16:53:00,
2013-01-02 11:58:00,32.9,15.4,30.07,WNW,292,2.0,14.0,48,0.00,,---,0.00,VWS V14.01,2013-01-02 16:58:00,
2013-01-02 12:00:00,32.9,14.9,30.07,WNW,292,6.0,14.0,47,0.00,,---,0.00,VWS V14.01,2013-01-02 17:00:00,
2013-01-02 12:03:00,33.2,15.6,30.07,WNW,293,8.0,10.0,48,0.00,,---,0.00,VWS V14.01,2013-01-02 17:03:00,
2013-01-02 12:08:00,33.5,14.9,30.07,West,276,5.0,10.0,46,0.00,,---,0.00,VWS V14.01,2013-01-02 17:08:00,
2013-01-02 12:13:00,33.6,15.0,30.07,NNW,335,6.0,10.0,46,0.00,,---,0.00,VWS V14.01,2013-01-02 17:13:00,
2013-01-02 12:18:00,33.7,15.6,30.06,WSW,247,7.0,10.0,47,0.00,,---,0.00,VWS V14.01,2013-01-02 17:18:00,
2013-01-02 12:23:00,33.4,14.9,30.05,WSW,248,7.0,11.0,46,0.00,,---,0.00,VWS V14.01,2013-01-02 17:23:00,
2013-01-02 12:28:00,33.1,15.1,30.06,WNW,298,6.0,13.0,47,0.00,,---,0.00,VWS V14.01,2013-01-02 17:28:00,
2013-01-02 12:30:00,33.1,15.1,30.06,West,270,6.0,13.0,47,0.00,,---,0.00,VWS V14.01,2013-01-02 17:30:00,
2013-01-02 12:33:00,32.8,14.8,30.05,West,274,8.0,10.0,47,0.00,,---,0.00,VWS V14.01,2013-01-02 17:33:00,
2013-01-02 12:38:00,32.9,15.4,30.05,SW,227,3.0,11.0,48,0.00,,---,0.00,VWS V14.01,2013-01-02 17:38:00,
2013-01-02 12:43:00,33.5,15.9,30.05,WNW,300,3.0,11.0,48,0.00,,---,0.00,VWS V14.01,2013-01-02 17:43:00,
2013-01-02 12:48:00,33.7,15.1,30.04,West,263,3.0,11.0,46,0.00,,---,0.00,VWS V14.01,2013-01-02 17:48:00,
2013-01-02 12:53:00,32.8,14.8,30.04,East,79,0.0,11.0,47,0.00,,---,0.00,VWS V14.01,2013-01-02 17:53:00,
2013-01-02 12:58:00,33.4,15.8,30.04,North,354,2.0,11.0,48,0.00,,---,0.00,VWS V14.01,2013-01-02 17:58:00,
2013-01-02 13:00:00,33.6,15.5,30.04,West,270,5.0,12.0,47,0.00,,---,0.00,VWS V14.01,2013-01-02 18:00:00,
2013-01-02 13:03:00,34.0,15.9,30.04,NW,306,6.0,12.0,47,0.00,,---,0.00,VWS V14.01,2013-01-02 18:03:00,
2013-01-02 13:08:00,33.9,15.3,30.04,WNW,299,10.0,13.0,46,0.00,,---,0.00,VWS V14.01,2013-01-02 18:08:00,
2013-01-02 13:13:00,34.2,15.6,30.04,West,262,6.0,13.0,46,0.00,,---,0.00,VWS V14.01,2013-01-02 18:13:00,
2013-01-02 13:18:00,34.2,15.6,30.04,NNW,334,3.0,13.0,46,0.00,,---,0.00,VWS V14.01,2013-01-02 18:18:00,
2013-01-02 13:23:00,34.0,15.4,30.04,NW,312,4.0,13.0,46,0.00,,---,0.00,VWS V14.01,2013-01-02 18:23:00,
2013-01-02 13:28:00,34.0,15.9,30.04,WNW,298,9.0,13.0,47,0.00,,---,0.00,VWS V14.01,2013-01-02 18:28:00,
2013-01-02 13:30:00,33.9,15.3,30.04,West,270,6.0,13.0,46,0.00,,---,0.00,VWS V14.01,2013-01-02 18:30:00,
2013-01-02 13:33:00,34.0,15.9,30.04,WNW,284,6.0,7.0,47,0.00,,---,0.00,VWS V14.01,2013-01-02 18:33:00,
2013-01-02 13:38:00,34.3,16.2,30.04,NE,41,5.0,7.0,47,0.00,,---,0.00,VWS V14.01,2013-01-02 18:38:00,
2013-01-02 13:43:00,34.4,15.8,30.04,NW,306,4.0,9.0,46,0.00,,---,0.00,VWS V14.01,2013-01-02 18:43:00,
2013-01-02 13:48:00,34.4,16.3,30.04,SSW,200,2.0,9.0,47,0.00,,---,0.00,VWS V14.01,2013-01-02 18:48:00,
2013-01-02 13:53:00,34.6,16.0,30.05,West,281,4.0,11.0,46,0.00,,---,0.00,VWS V14.01,2013-01-02 18:53:00,
2013-01-02 13:58:00,34.8,16.1,30.04,SW,234,2.0,11.0,46,0.00,,---,0.00,VWS V14.01,2013-01-02 18:58:00,
2013-01-02 14:00:00,35.0,16.3,30.05,West,270,4.0,11.0,46,0.00,,---,0.00,VWS V14.01,2013-01-02 19:00:00,
2013-01-02 14:03:00,35.1,16.4,30.05,WNW,285,2.0,10.0,46,0.00,,---,0.00,VWS V14.01,2013-01-02 19:03:00,
2013-01-02 14:08:00,35.2,16.0,30.04,NW,306,8.0,12.0,45,0.00,,---,0.00,VWS V14.01,2013-01-02 19:08:00,
2013-01-02 14:13:00,35.3,16.6,30.05,WNW,295,5.0,12.0,46,0.00,,---,0.00,VWS V14.01,2013-01-02 19:13:00,
2013-01-02 14:18:00,35.6,17.4,30.05,West,273,6.0,12.0,47,0.00,,---,0.00,VWS V14.01,2013-01-02 19:18:00,
2013-01-02 14:23:00,35.3,17.1,30.05,WSW,248,9.0,15.0,47,0.00,,---,0.00,VWS V14.01,2013-01-02 19:23:00,
2013-01-02 14:28:00,35.3,15.6,30.05,West,269,7.0,15.0,44,0.00,,---,0.00,VWS V14.01,2013-01-02 19:28:00,
2013-01-02 14:30:00,35.1,15.9,30.05,West,270,7.0,15.0,45,0.00,,---,0.00,VWS V14.01,2013-01-02 19:30:00,
2013-01-02 14:33:00,35.1,16.9,30.05,SW,224,6.0,14.0,47,0.00,,---,0.00,VWS V14.01,2013-01-02 19:33:00,
2013-01-02 14:38:00,35.1,16.4,30.06,West,271,11.0,15.0,46,0.00,,---,0.00,VWS V14.01,2013-01-02 19:38:00,
2013-01-02 14:43:00,35.0,16.3,30.05,WNW,283,6.0,16.0,46,0.00,,---,0.00,VWS V14.01,2013-01-02 19:43:00,
2013-01-02 14:48:00,35.1,16.4,30.06,WSW,256,14.0,16.0,46,0.00,,---,0.00,VWS V14.01,2013-01-02 19:48:00,
2013-01-02 14:53:00,34.8,16.1,30.06,NNW,328,6.0,16.0,46,0.00,,---,0.00,VWS V14.01,2013-01-02 19:53:00,
2013-01-02 14:58:00,34.8,16.6,30.06,West,280,3.0,16.0,47,0.00,,---,0.00,VWS V14.01,2013-01-02 19:58:00,
2013-01-02 15:00:00,34.9,16.2,30.06,West,270,9.0,18.0,46,0.00,,---,0.00,VWS V14.01,2013-01-02 20:00:00,
2013-01-02 15:03:00,34.9,16.7,30.06,NW,314,8.0,15.0,47,0.00,,---,0.00,VWS V14.01,2013-01-02 20:03:00,
2013-01-02 15:08:00,34.6,16.5,30.06,WNW,283,8.0,15.0,47,0.00,,---,0.00,VWS V14.01,2013-01-02 20:08:00,
2013-01-02 15:13:00,34.6,16.5,30.06,WSW,258,9.0,15.0,47,0.00,,---,0.00,VWS V14.01,2013-01-02 20:13:00,
2013-01-02 15:18:00,34.8,17.6,30.06,West,281,8.0,15.0,49,0.00,,---,0.00,VWS V14.01,2013-01-02 20:18:00,
2013-01-02 15:23:00,35.0,16.3,30.07,West,273,10.0,15.0,46,0.00,,---,0.00,VWS V14.01,2013-01-02 20:23:00,
2013-01-02 15:28:00,35.1,16.9,30.07,NW,304,7.0,15.0,47,0.00,,---,0.00,VWS V14.01,2013-01-02 20:28:00,
2013-01-02 15:30:00,35.1,16.4,30.07,West,270,8.0,15.0,46,0.00,,---,0.00,VWS V14.01,2013-01-02 20:30:00,
2013-01-02 15:33:00,35.1,16.4,30.07,WNW,298,6.0,11.0,46,0.00,,---,0.00,VWS V14.01,2013-01-02 20:33:00,
2013-01-02 15:38:00,35.3,17.1,30.07,WNW,299,10.0,11.0,47,0.00,,---,0.00,VWS V14.01,2013-01-02 20:38:00,
2013-01-02 15:43:00,35.3,17.1,30.07,SW,233,7.0,13.0,47,0.00,,---,0.00,VWS V14.01,2013-01-02 20:43:00,
2013-01-02 15:48:00,35.2,16.5,30.07,WNW,287,11.0,14.0,46,0.00,,---,0.00,VWS V14.01,2013-01-02 20:48:00,
2013-01-02 15:53:00,35.0,15.8,30.07,North,11,4.0,15.0,45,0.00,,---,0.00,VWS V14.01,2013-01-02 20:53:00,
2013-01-02 15:58:00,35.0,16.8,30.07,NW,317,7.0,15.0,47,0.00,,---,0.00,VWS V14.01,2013-01-02 20:58:00,
2013-01-02 16:00:00,35.0,16.8,30.08,West,270,8.0,15.0,47,0.00,,---,0.00,VWS V14.01,2013-01-02 21:00:00,
2013-01-02 16:03:00,34.9,16.2,30.08,NW,315,4.0,11.0,46,0.00,,---,0.00,VWS V14.01,2013-01-02 21:03:00,
2013-01-02 16:08:00,34.8,16.6,30.08,North,356,9.0,12.0,47,0.00,,---,0.00,VWS V14.01,2013-01-02 21:08:00,
2013-01-02 16:13:00,34.7,16.5,30.08,NW,309,10.0,12.0,47,0.00,,---,0.00,VWS V14.01,2013-01-02 21:13:00,
2013-01-02 16:18:00,34.5,16.9,30.08,WNW,296,6.0,16.0,48,0.00,,---,0.00,VWS V14.01,2013-01-02 21:18:00,
2013-01-02 16:23:00,34.4,17.2,30.09,West,281,6.0,16.0,49,0.00,,---,0.00,VWS V14.01,2013-01-02 21:23:00,
2013-01-02 16:28:00,34.3,17.6,30.09,West,268,7.0,16.0,50,0.00,,---,0.00,VWS V14.01,2013-01-02 21:28:00,
2013-01-02 16:30:00,34.2,17.0,30.09,West,270,7.0,16.0,49,0.00,,---,0.00,VWS V14.01,2013-01-02 21:30:00,
2013-01-02 16:33:00,34.0,17.8,30.09,NW,306,4.0,8.0,51,0.00,,---,0.00,VWS V14.01,2013-01-02 21:33:00,
2013-01-02 16:38:00,33.6,17.4,30.09,West,270,2.0,11.0,51,0.00,,---,0.00,VWS V14.01,2013-01-02 21:38:00,
2013-01-02 16:43:00,33.4,16.8,30.09,West,261,4.0,12.0,50,0.00,,---,0.00,VWS V14.01,2013-01-02 21:43:00,
2013-01-02 16:48:00,33.3,16.7,30.09,WNW,290,6.0,13.0,50,0.00,,---,0.00,VWS V14.01,2013-01-02 21:48:00,
2013-01-02 16:53:00,33.1,16.5,30.10,NW,315,8.0,13.0,50,0.00,,---,0.00,VWS V14.01,2013-01-02 21:53:00,
2013-01-02 16:58:00,33.0,17.3,30.10,West,272,8.0,13.0,52,0.00,,---,0.00,VWS V14.01,2013-01-02 21:58:00,
2013-01-02 17:00:00,32.9,17.2,30.10,WNW,292,5.0,13.0,52,0.00,,---,0.00,VWS V14.01,2013-01-02 22:00:00,
2013-01-02 17:03:00,32.8,16.7,30.10,WSW,257,7.0,12.0,51,0.00,,---,0.00,VWS V14.01,2013-01-02 22:03:00,
2013-01-02 17:08:00,32.7,16.6,30.11,WNW,299,3.0,12.0,51,0.00,,---,0.00,VWS V14.01,2013-01-02 22:08:00,
2013-01-02 17:13:00,32.5,17.3,30.11,SW,215,6.0,12.0,53,0.00,,---,0.00,VWS V14.01,2013-01-02 22:13:00,
2013-01-02 17:18:00,32.3,18.0,30.11,WNW,293,5.0,12.0,55,0.00,,---,0.00,VWS V14.01,2013-01-02 22:18:00,
2013-01-02 17:23:00,32.1,17.3,30.12,WNW,303,6.0,12.0,54,0.00,,---,0.00,VWS V14.01,2013-01-02 22:23:00,
2013-01-02 17:28:00,31.9,17.6,30.12,WSW,257,2.0,12.0,55,0.00,,---,0.00,VWS V14.01,2013-01-02 22:28:00,
2013-01-02 17:30:00,31.9,17.2,30.12,WNW,292,4.0,12.0,54,0.00,,---,0.00,VWS V14.01,2013-01-02 22:30:00,
2013-01-02 17:33:00,31.8,17.1,30.12,West,272,3.0,8.0,54,0.00,,---,0.00,VWS V14.01,2013-01-02 22:33:00,
2013-01-02 17:38:00,31.7,17.0,30.12,NW,311,5.0,8.0,54,0.00,,---,0.00,VWS V14.01,2013-01-02 22:38:00,
2013-01-02 17:43:00,31.6,17.7,30.12,West,266,4.0,8.0,56,0.00,,---,0.00,VWS V14.01,2013-01-02 22:43:00,
2013-01-02 17:48:00,31.6,17.7,30.13,WNW,303,7.0,10.0,56,0.00,,---,0.00,VWS V14.01,2013-01-02 22:48:00,
2013-01-02 17:53:00,31.6,17.3,30.13,West,271,6.0,10.0,55,0.00,,---,0.00,VWS V14.01,2013-01-02 22:53:00,
2013-01-02 17:58:00,31.6,17.3,30.13,WNW,300,9.0,11.0,55,0.00,,---,0.00,VWS V14.01,2013-01-02 22:58:00,
2013-01-02 18:00:00,31.6,17.3,30.13,WNW,292,5.0,11.0,55,0.00,,---,0.00,VWS V14.01,2013-01-02 23:00:00,
2013-01-02 18:03:00,31.5,17.2,30.13,NW,310,4.0,10.0,55,0.00,,---,0.00,VWS V14.01,2013-01-02 23:03:00,
2013-01-02 18:08:00,31.5,16.8,30.13,WSW,241,6.0,10.0,54,0.00,,---,0.00,VWS V14.01,2013-01-02 23:08:00,
2013-01-02 18:13:00,31.4,17.1,30.13,WNW,285,5.0,10.0,55,0.00,,---,0.00,VWS V14.01,2013-01-02 23:13:00,
2013-01-02 18:18:00,31.4,17.1,30.13,WNW,288,4.0,10.0,55,0.00,,---,0.00,VWS V14.01,2013-01-02 23:18:00,
2013-01-02 18:23:00,31.3,17.0,30.13,WNW,284,6.0,10.0,55,0.00,,---,0.00,VWS V14.01,2013-01-02 23:23:00,
2013-01-02 18:28:00,31.2,16.9,30.14,North,358,5.0,10.0,55,0.00,,---,0.00,VWS V14.01,2013-01-02 23:28:00,
2013-01-02 18:30:00,31.2,17.3,30.14,WNW,292,6.0,11.0,56,0.00,,---,0.00,VWS V14.01,2013-01-02 23:30:00,
2013-01-02 18:33:00,31.1,17.2,30.14,WNW,287,7.0,11.0,56,0.00,,---,0.00,VWS V14.01,2013-01-02 23:33:00,
2013-01-02 18:38:00,31.0,17.2,30.15,WNW,296,4.0,12.0,56,0.00,,---,0.00,VWS V14.01,2013-01-02 23:38:00,
2013-01-02 18:43:00,31.0,17.2,30.15,WSW,245,8.0,12.0,56,0.00,,---,0.00,VWS V14.01,2013-01-02 23:43:00,
2013-01-02 18:48:00,30.9,17.1,30.14,WNW,303,6.0,12.0,56,0.00,,---,0.00,VWS V14.01,2013-01-02 23:48:00,
2013-01-02 18:53:00,30.8,17.0,30.15,West,271,4.0,12.0,56,0.00,,---,0.00,VWS V14.01,2013-01-02 23:53:00,
2013-01-02 18:58:00,30.7,17.3,30.15,WSW,257,6.0,12.0,57,0.00,,---,0.00,VWS V14.01,2013-01-02 23:58:00,
2013-01-02 19:00:00,30.7,17.3,30.15,WNW,292,6.0,12.0,57,0.00,,---,0.00,VWS V14.01,2013-01-03 00:00:00,
2013-01-02 19:03:00,30.6,17.2,30.15,NW,305,8.0,11.0,57,0.00,,---,0.00,VWS V14.01,2013-01-03 00:03:00,
2013-01-02 19:08:00,30.6,18.0,30.16,West,263,7.0,12.0,59,0.00,,---,0.00,VWS V14.01,2013-01-03 00:08:00,
2013-01-02 19:13:00,30.5,17.9,30.16,NNW,341,5.0,12.0,59,0.00,,---,0.00,VWS V14.01,2013-01-03 00:13:00,
2013-01-02 19:18:00,30.5,17.9,30.16,WNW,297,5.0,12.0,59,0.00,,---,0.00,VWS V14.01,2013-01-03 00:18:00,
2013-01-02 19:23:00,30.5,17.9,30.16,NW,317,2.0,12.0,59,0.00,,---,0.00,VWS V14.01,2013-01-03 00:23:00,
2013-01-02 19:28:00,30.3,16.9,30.16,WSW,245,4.0,12.0,57,0.00,,---,0.00,VWS V14.01,2013-01-03 00:28:00,
2013-01-02 19:30:00,30.3,17.3,30.15,WNW,292,5.0,12.0,58,0.00,,---,0.00,VWS V14.01,2013-01-03 00:30:00,
2013-01-02 19:33:00,30.3,17.3,30.16,WSW,250,3.0,6.0,58,0.00,,---,0.00,VWS V14.01,2013-01-03 00:33:00,
2013-01-02 19:38:00,30.3,18.1,30.16,WNW,302,6.0,8.0,60,0.00,,---,0.00,VWS V14.01,2013-01-03 00:38:00,
2013-01-02 19:43:00,30.4,18.2,30.15,West,273,2.0,9.0,60,0.00,,---,0.00,VWS V14.01,2013-01-03 00:43:00,
2013-01-02 19:48:00,30.4,19.0,30.15,WNW,286,5.0,9.0,62,0.00,,---,0.00,VWS V14.01,2013-01-03 00:48:00,
2013-01-02 19:53:00,30.5,18.3,30.16,WNW,288,7.0,9.0,60,0.00,,---,0.00,VWS V14.01,2013-01-03 00:53:00,
2013-01-02 19:58:00,30.5,17.9,30.16,SW,219,5.0,9.0,59,0.00,,---,0.00,VWS V14.01,2013-01-03 00:58:00,
2013-01-02 20:00:00,30.5,17.9,30.16,WNW,292,4.0,9.0,59,0.00,,---,0.00,VWS V14.01,2013-01-03 01:00:00,
2013-01-02 20:03:00,30.5,18.3,30.15,West,264,9.0,9.0,60,0.00,,---,0.00,VWS V14.01,2013-01-03 01:03:00,
2013-01-02 20:08:00,30.4,18.2,30.15,SW,232,3.0,9.0,60,0.00,,---,0.00,VWS V14.01,2013-01-03 01:08:00,
2013-01-02 20:13:00,30.3,18.5,30.15,West,259,3.0,9.0,61,0.00,,---,0.00,VWS V14.01,2013-01-03 01:13:00,
2013-01-02 20:18:00,30.4,17.8,30.15,West,259,4.0,9.0,59,0.00,,---,0.00,VWS V14.01,2013-01-03 01:18:00,
2013-01-02 20:23:00,30.4,18.2,30.15,WNW,286,3.0,9.0,60,0.00,,---,0.00,VWS V14.01,2013-01-03 01:23:00,
2013-01-02 20:28:00,30.4,18.2,30.15,NW,304,5.0,11.0,60,0.00,,---,0.00,VWS V14.01,2013-01-03 01:28:00,
2013-01-02 20:30:00,30.4,18.2,30.16,West,270,5.0,11.0,60,0.00,,---,0.00,VWS V14.01,2013-01-03 01:30:00,
2013-01-02 20:33:00,30.5,18.7,30.16,West,266,5.0,8.0,61,0.00,,---,0.00,VWS V14.01,2013-01-03 01:33:00,
2013-01-02 20:38:00,30.4,18.6,30.16,West,279,3.0,8.0,61,0.00,,---,0.00,VWS V14.01,2013-01-03 01:38:00,
2013-01-02 20:43:00,30.1,19.4,30.16,West,269,4.0,8.0,64,0.00,,---,0.00,VWS V14.01,2013-01-03 01:43:00,
2013-01-02 20:48:00,29.7,19.0,30.16,West,275,5.0,8.0,64,0.00,,---,0.00,VWS V14.01,2013-01-03 01:48:00,
2013-01-02 20:53:00,29.5,19.2,30.16,West,266,4.0,8.0,65,0.00,,---,0.00,VWS V14.01,2013-01-03 01:53:00,
2013-01-02 20:58:00,29.4,19.1,30.16,WSW,240,2.0,8.0,65,0.00,,---,0.00,VWS V14.01,2013-01-03 01:58:00,
2013-01-02 21:00:00,29.3,18.6,30.16,West,270,4.0,8.0,64,0.00,,---,0.00,VWS V14.01,2013-01-03 02:00:00,
2013-01-02 21:03:00,29.3,19.0,30.16,West,259,2.0,4.0,65,0.00,,---,0.00,VWS V14.01,2013-01-03 02:03:00,
2013-01-02 21:08:00,29.2,18.9,30.16,WNW,285,4.0,7.0,65,0.00,,---,0.00,VWS V14.01,2013-01-03 02:08:00,
2013-01-02 21:13:00,29.2,18.9,30.16,West,269,4.0,7.0,65,0.00,,---,0.00,VWS V14.01,2013-01-03 02:13:00,
2013-01-02 21:18:00,29.3,19.0,30.15,West,269,7.0,8.0,65,0.00,,---,0.00,VWS V14.01,2013-01-03 02:18:00,
2013-01-02 21:23:00,29.3,19.0,30.16,West,275,2.0,8.0,65,0.00,,---,0.00,VWS V14.01,2013-01-03 02:23:00,
2013-01-02 21:28:00,29.3,19.0,30.16,West,266,5.0,9.0,65,0.00,,---,0.00,VWS V14.01,2013-01-03 02:28:00,
2013-01-02 21:30:00,29.4,18.7,30.16,West,270,5.0,9.0,64,0.00,,---,0.00,VWS V14.01,2013-01-03 02:30:00,
2013-01-02 21:33:00,29.4,19.1,30.16,West,263,3.0,8.0,65,0.00,,---,0.00,VWS V14.01,2013-01-03 02:33:00,
2013-01-02 21:38:00,29.6,19.3,30.16,WNW,282,6.0,9.0,65,0.00,,---,0.00,VWS V14.01,2013-01-03 02:38:00,
2013-01-02 21:43:00,29.7,19.0,30.16,SW,221,3.0,9.0,64,0.00,,---,0.00,VWS V14.01,2013-01-03 02:43:00,
2013-01-02 21:48:00,29.6,18.9,30.16,West,262,5.0,9.0,64,0.00,,---,0.00,VWS V14.01,2013-01-03 02:48:00,
2013-01-02 21:53:00,29.4,18.7,30.16,West,270,5.0,9.0,64,0.00,,---,0.00,VWS V14.01,2013-01-03 02:53:00,
2013-01-02 21:58:00,29.3,18.3,30.16,WSW,251,8.0,10.0,63,0.00,,---,0.00,VWS V14.01,2013-01-03 02:58:00,
2013-01-02 22:00:00,29.3,18.6,30.16,West,270,5.0,10.0,64,0.00,,---,0.00,VWS V14.01,2013-01-03 03:00:00,
2013-01-02 22:03:00,29.3,19.0,30.16,West,279,4.0,10.0,65,0.00,,---,0.00,VWS V14.01,2013-01-03 03:03:00,
2013-01-02 22:08:00,29.2,18.9,30.17,WNW,286,7.0,10.0,65,0.00,,---,0.00,VWS V14.01,2013-01-03 03:08:00,
2013-01-02 22:13:00,29.2,18.5,30.17,SW,232,8.0,10.0,64,0.00,,---,0.00,VWS V14.01,2013-01-03 03:13:00,
2013-01-02 22:18:00,29.2,18.5,30.17,West,259,10.0,11.0,64,0.00,,---,0.00,VWS V14.01,2013-01-03 03:18:00,
2013-01-02 22:23:00,29.0,18.7,30.17,West,270,5.0,11.0,65,0.00,,---,0.00,VWS V14.01,2013-01-03 03:23:00,
2013-01-02 22:28:00,28.8,18.9,30.17,West,274,8.0,11.0,66,0.00,,---,0.00,VWS V14.01,2013-01-03 03:28:00,
2013-01-02 22:30:00,28.7,18.8,30.17,West,270,6.0,11.0,66,0.00,,---,0.00,VWS V14.01,2013-01-03 03:30:00,
2013-01-02 22:34:00,28.8,18.9,30.18,NW,308,3.0,10.0,66,0.00,,---,0.00,VWS V14.01,2013-01-03 03:34:00,
2013-01-02 22:39:00,28.9,18.6,30.18,West,277,7.0,12.0,65,0.00,,---,0.00,VWS V14.01,2013-01-03 03:39:00,
2013-01-02 22:44:00,29.0,18.7,30.18,West,269,10.0,13.0,65,0.00,,---,0.00,VWS V14.01,2013-01-03 03:44:00,
2013-01-02 22:49:00,29.1,18.5,30.18,NW,312,9.0,13.0,64,0.00,,---,0.00,VWS V14.01,2013-01-03 03:49:00,
2013-01-02 22:54:00,29.2,18.5,30.19,SSW,196,5.0,13.0,64,0.00,,---,0.00,VWS V14.01,2013-01-03 03:54:00,
2013-01-02 22:59:00,29.2,18.5,30.19,West,262,7.0,13.0,64,0.00,,---,0.00,VWS V14.01,2013-01-03 03:59:00,
2013-01-02 23:00:00,29.2,18.5,30.19,West,270,7.0,14.0,64,0.00,,---,0.00,VWS V14.01,2013-01-03 04:00:00,
2013-01-02 23:04:00,29.2,18.5,30.20,West,271,8.0,10.0,64,0.00,,---,0.00,VWS V14.01,2013-01-03 04:04:00,
2013-01-02 23:09:00,29.1,18.5,30.19,WNW,292,7.0,11.0,64,0.00,,---,0.00,VWS V14.01,2013-01-03 04:09:00,
2013-01-02 23:14:00,29.0,18.7,30.19,NW,305,5.0,13.0,65,0.00,,---,0.00,VWS V14.01,2013-01-03 04:14:00,
2013-01-02 23:19:00,29.0,19.1,30.19,West,264,9.0,13.0,66,0.00,,---,0.00,VWS V14.01,2013-01-03 04:19:00,
2013-01-02 23:24:00,29.0,19.1,30.19,WNW,282,9.0,13.0,66,0.00,,---,0.00,VWS V14.01,2013-01-03 04:24:00,
2013-01-02 23:29:00,28.9,18.6,30.19,NW,311,5.0,13.0,65,0.00,,---,0.00,VWS V14.01,2013-01-03 04:29:00,
2013-01-02 23:30:00,28.9,18.6,30.19,West,270,8.0,13.0,65,0.00,,---,0.00,VWS V14.01,2013-01-03 04:30:00,
2013-01-02 23:34:00,28.9,19.0,30.19,WSW,252,4.0,11.0,66,0.00,,---,0.00,VWS V14.01,2013-01-03 04:34:00,
2013-01-02 23:39:00,28.9,19.0,30.19,WSW,257,4.0,11.0,66,0.00,,---,0.00,VWS V14.01,2013-01-03 04:39:00,
2013-01-02 23:44:00,29.2,19.3,30.18,WSW,247,13.0,16.0,66,0.00,,---,0.00,VWS V14.01,2013-01-03 04:44:00,
2013-01-02 23:49:00,29.3,18.6,30.19,WNW,290,9.0,16.0,64,0.00,,---,0.00,VWS V14.01,2013-01-03 04:49:00,
2013-01-02 23:54:00,29.4,18.7,30.20,WNW,289,6.0,16.0,64,0.00,,---,0.00,VWS V14.01,2013-01-03 04:54:00,
2013-01-02 23:59:00,29.4,19.1,30.20,North,1,7.0,16.0,65,0.00,,---,0.00,VWS V14.01,2013-01-03 04:59:00,